Zurück zum Katalog

STARLINK-11201

AktivKommunikationVLEO
NORAD 60113·PAYLOAD·🇺🇸 United States

Gestartet Jun 24, 2024 von Vandenberg Space Force Base

Loading…

Nächste Überflüge (nächste 24 Stunden)

TLE

AktuellSource: CelesTrak SupGP

Epoche: Sep 14, 2026, 14:56 UTC

1 60113C 24118A   26257.62270833 -.00018788  00000+0 -15481-3 0  2572
2 60113  53.1573  10.2061 0001158  74.9301 266.7115 15.69711339    10

Verfolge STARLINK-11201 in Echtzeit mit AllMySat

Download on the App Store